Location: Berkeley
(37.8716°N, 122.2727°W)
Time: 20:06:00
(UTC-07:00)

CAS-4A - Visible Passes

Search period start: 13 October 2019 00:00
Search period end: 23 October 2019 00:00
Orbit: 528 x 546 km, 43.0° (Epoch: 13 October)

Date Brightness Start Highest point End Pass type
(mag) Time Alt. Az. Time Alt. Az. Time Alt. Az.
13 Oct ? 04:35:17 15° ESE 04:35:17 15° ESE 04:36:06 10° ESE visible
13 Oct ? 06:10:40 19° WSW 06:11:47 21° SW 06:14:52 10° S visible
14 Oct ? 06:01:36 16° SW 06:01:36 16° SW 06:04:02 10° S visible
15 Oct ? 05:52:37 10° SSW 05:52:37 10° SSW 05:52:49 10° SSW visible
18 Oct ? 20:45:22 10° SW 20:46:32 18° SW 20:46:32 18° SW visible
19 Oct ? 18:57:51 10° SSE 18:59:29 12° SE 19:01:08 10° ESE visible
19 Oct ? 20:35:03 10° SW 20:37:17 30° SW 20:37:17 30° SW visible
20 Oct ? 20:24:47 10° WSW 20:27:56 51° SW 20:27:56 51° SW visible
21 Oct ? 20:14:34 10° WSW 20:18:27 80° WSW 20:18:27 80° WSW visible
22 Oct ? 20:04:24 10° WSW 20:08:29 74° NNW 20:08:54 66° NNE visible
